Time,TemperatureF,DewpointF,PressureIn,WindDirection,WindDirectionDegrees,WindSpeedMPH,WindSpeedGustMPH,Humidity,HourlyPrecipIn,Conditions,Clouds,dailyrainin,SoftwareType,DateUTC
2013-02-22 00:00:00,39.8,38.5,30.12,SSE,150,1.0,1.0,95,0.00,,,0.39,Wunderground v.1.15,2013-02-22 08:00:00,
2013-02-22 00:05:00,39.8,38.5,30.12,SSE,150,1.0,1.0,95,0.00,,,0.39,Wunderground v.1.15,2013-02-22 08:05:00,
2013-02-22 00:10:00,39.8,38.5,30.12,SSE,150,0.0,0.0,95,0.00,,,0.00,Wunderground v.1.15,2013-02-22 08:10:00,
2013-02-22 00:15:00,39.8,38.5,30.12,SSE,150,0.0,0.0,95,0.00,,,0.00,Wunderground v.1.15,2013-02-22 08:15:00,
2013-02-22 00:20:00,39.9,38.6,30.13,SSE,150,0.0,0.0,95,0.00,,,0.00,Wunderground v.1.15,2013-02-22 08:20:00,
2013-02-22 00:25:00,39.9,38.6,30.14,SSE,155,0.0,3.0,95,0.00,,,0.00,Wunderground v.1.15,2013-02-22 08:25:00,
2013-02-22 00:30:00,40.1,38.8,30.14,West,277,2.0,2.0,95,0.00,,,0.00,Wunderground v.1.15,2013-02-22 08:30:00,
2013-02-22 00:35:00,40.1,38.8,30.14,West,277,2.0,2.0,95,0.00,,,0.00,Wunderground v.1.15,2013-02-22 08:35:00,
2013-02-22 00:40:00,40.1,38.8,30.14,West,277,0.0,2.0,95,0.00,,,0.00,Wunderground v.1.15,2013-02-22 08:40:00,
2013-02-22 00:45:00,40.2,38.6,30.13,West,277,1.0,2.0,94,0.00,,,0.00,Wunderground v.1.15,2013-02-22 08:45:00,
2013-02-22 00:50:00,40.2,38.6,30.13,South,174,1.0,2.0,94,0.00,,,0.00,Wunderground v.1.15,2013-02-22 08:50:00,
2013-02-22 00:55:00,40.2,38.6,30.13,South,174,2.0,2.0,94,0.00,,,0.00,Wunderground v.1.15,2013-02-22 08:55:00,
2013-02-22 01:00:00,40.0,38.4,30.13,South,174,2.0,3.0,94,0.00,,,0.00,Wunderground v.1.15,2013-02-22 09:00:00,
2013-02-22 01:05:00,39.8,38.2,30.13,South,174,2.0,3.0,94,0.00,,,0.00,Wunderground v.1.15,2013-02-22 09:05:00,
2013-02-22 01:10:00,39.7,38.4,30.13,South,174,2.0,2.0,95,0.00,,,0.00,Wunderground v.1.15,2013-02-22 09:10:00,
2013-02-22 01:15:00,39.5,38.2,30.13,South,173,2.0,2.0,95,0.00,,,0.00,Wunderground v.1.15,2013-02-22 09:15:00,
2013-02-22 01:20:00,39.4,38.1,30.12,SE,133,3.0,3.0,95,0.00,,,0.00,Wunderground v.1.15,2013-02-22 09:20:00,
2013-02-22 01:25:00,39.4,38.1,30.12,SE,133,2.0,3.0,95,0.00,,,0.00,Wunderground v.1.15,2013-02-22 09:25:00,
2013-02-22 01:30:00,39.4,38.4,30.12,SSE,147,1.0,1.0,96,0.00,,,0.00,Wunderground v.1.15,2013-02-22 09:30:00,
2013-02-22 01:35:00,39.4,38.4,30.12,SSE,147,1.0,1.0,96,0.00,,,0.00,Wunderground v.1.15,2013-02-22 09:35:00,
2013-02-22 01:40:00,39.4,38.4,30.13,SSE,147,0.0,0.0,96,0.00,,,0.00,Wunderground v.1.15,2013-02-22 09:40:00,
2013-02-22 01:45:00,39.4,38.4,30.12,SSE,147,0.0,0.0,96,0.00,,,0.00,Wunderground v.1.15,2013-02-22 09:45:00,
2013-02-22 01:50:00,39.4,38.4,30.12,SSE,147,1.0,3.0,96,0.00,,,0.00,Wunderground v.1.15,2013-02-22 09:50:00,
2013-02-22 01:55:00,39.5,38.5,30.12,SSE,147,1.0,3.0,96,0.00,,,0.00,Wunderground v.1.15,2013-02-22 09:55:00,
2013-02-22 02:00:00,39.5,38.5,30.12,SSE,147,2.0,2.0,96,0.00,,,0.00,Wunderground v.1.15,2013-02-22 10:00:00,
2013-02-22 02:05:00,39.6,38.6,30.12,SSE,157,2.0,2.0,96,0.00,,,0.00,Wunderground v.1.15,2013-02-22 10:05:00,
2013-02-22 02:10:00,39.6,38.6,30.11,SSE,157,1.0,1.0,96,0.00,,,0.00,Wunderground v.1.15,2013-02-22 10:10:00,
2013-02-22 02:15:00,39.6,38.6,30.12,SSE,157,0.0,1.0,96,0.00,,,0.00,Wunderground v.1.15,2013-02-22 10:15:00,
2013-02-22 02:20:00,39.6,38.6,30.12,SSE,157,0.0,0.0,96,0.00,,,0.00,Wunderground v.1.15,2013-02-22 10:20:00,
2013-02-22 02:25:00,39.6,38.6,30.11,SSE,157,0.0,0.0,96,0.00,,,0.00,Wunderground v.1.15,2013-02-22 10:25:00,
2013-02-22 02:30:00,39.6,38.6,30.11,SSE,157,0.0,0.0,96,0.00,,,0.00,Wunderground v.1.15,2013-02-22 10:30:00,
2013-02-22 02:35:00,39.7,38.7,30.10,South,171,0.0,3.0,96,0.00,,,0.00,Wunderground v.1.15,2013-02-22 10:35:00,
2013-02-22 02:40:00,39.7,38.7,30.10,SSW,192,2.0,2.0,96,0.00,,,0.01,Wunderground v.1.15,2013-02-22 10:40:00,
2013-02-22 02:45:00,39.6,38.6,30.10,SSW,192,2.0,2.0,96,0.00,,,0.01,Wunderground v.1.15,2013-02-22 10:45:00,
2013-02-22 02:50:00,39.6,38.6,30.09,SSW,192,1.0,1.0,96,0.00,,,0.01,Wunderground v.1.15,2013-02-22 10:50:00,
2013-02-22 02:55:00,39.6,38.6,30.09,South,190,0.0,3.0,96,0.00,,,0.01,Wunderground v.1.15,2013-02-22 10:55:00,
2013-02-22 03:05:00,39.6,38.6,30.09,South,178,1.0,1.0,96,0.00,,,0.01,Wunderground v.1.15,2013-02-22 11:05:00,
2013-02-22 03:10:00,39.6,38.6,30.09,South,178,0.0,1.0,96,0.00,,,0.01,Wunderground v.1.15,2013-02-22 11:10:00,
2013-02-22 03:15:00,39.6,38.6,30.09,South,178,0.0,1.0,96,0.00,,,0.01,Wunderground v.1.15,2013-02-22 11:15:00,
2013-02-22 03:20:00,39.6,38.6,30.09,South,178,0.0,0.0,96,0.00,,,0.01,Wunderground v.1.15,2013-02-22 11:20:00,
2013-02-22 03:25:00,39.7,38.7,30.08,South,178,0.0,0.0,96,0.00,,,0.01,Wunderground v.1.15,2013-02-22 11:25:00,
2013-02-22 03:30:00,39.8,39.0,30.08,South,178,0.0,0.0,97,0.00,,,0.01,Wunderground v.1.15,2013-02-22 11:30:00,
2013-02-22 03:35:00,40.0,39.2,30.08,South,178,1.0,3.0,97,0.00,,,0.01,Wunderground v.1.15,2013-02-22 11:35:00,
2013-02-22 03:40:00,40.3,39.3,30.07,SSE,156,3.0,3.0,96,0.00,,,0.01,Wunderground v.1.15,2013-02-22 11:40:00,
2013-02-22 03:45:00,40.4,39.4,30.07,South,185,4.0,6.0,96,0.00,,,0.01,Wunderground v.1.15,2013-02-22 11:45:00,
2013-02-22 03:50:00,40.5,39.2,30.06,SSE,163,4.0,4.0,95,0.00,,,0.01,Wunderground v.1.15,2013-02-22 11:50:00,
2013-02-22 03:55:00,40.6,39.3,30.05,SE,124,3.0,4.0,95,0.00,,,0.01,Wunderground v.1.15,2013-02-22 11:55:00,
2013-02-22 04:05:00,40.8,39.5,30.06,ESE,123,2.0,3.0,95,0.00,,,0.01,Wunderground v.1.15,2013-02-22 12:05:00,
2013-02-22 04:10:00,40.9,39.3,30.05,ESE,115,2.0,2.0,94,0.00,,,0.01,Wunderground v.1.15,2013-02-22 12:10:00,
2013-02-22 04:15:00,41.2,39.3,30.05,East,96,2.0,2.0,93,0.00,,,0.01,Wunderground v.1.15,2013-02-22 12:15:00,
2013-02-22 04:20:00,41.2,39.3,30.05,East,92,2.0,2.0,93,0.00,,,0.01,Wunderground v.1.15,2013-02-22 12:20:00,
2013-02-22 04:25:00,41.3,39.2,30.05,East,95,2.0,2.0,92,0.00,,,0.01,Wunderground v.1.15,2013-02-22 12:25:00,
2013-02-22 04:30:00,41.5,39.3,30.05,East,92,3.0,3.0,92,0.00,,,0.01,Wunderground v.1.15,2013-02-22 12:30:00,
2013-02-22 04:35:00,41.5,39.3,30.04,East,96,3.0,3.0,92,0.00,,,0.01,Wunderground v.1.15,2013-02-22 12:35:00,
2013-02-22 04:40:00,41.6,39.2,30.04,ESE,108,2.0,4.0,91,0.00,,,0.01,Wunderground v.1.15,2013-02-22 12:40:00,
2013-02-22 04:45:00,41.7,39.3,30.04,SE,131,3.0,4.0,91,0.00,,,0.01,Wunderground v.1.15,2013-02-22 12:45:00,
2013-02-22 04:55:00,42.1,39.1,30.05,SE,131,5.0,8.0,89,0.00,,,0.01,Wunderground v.1.15,2013-02-22 12:55:00,
2013-02-22 05:00:00,42.1,39.1,30.05,ESE,123,6.0,6.0,89,0.00,,,0.01,Wunderground v.1.15,2013-02-22 13:00:00,
2013-02-22 05:05:00,41.9,38.9,30.05,ESE,110,4.0,6.0,89,0.00,,,0.01,Wunderground v.1.15,2013-02-22 13:05:00,
2013-02-22 05:15:00,41.5,38.8,30.04,ESE,111,3.0,3.0,90,0.00,,,0.01,Wunderground v.1.15,2013-02-22 13:15:00,
2013-02-22 05:20:00,41.3,38.9,30.04,East,88,3.0,3.0,91,0.00,,,0.02,Wunderground v.1.15,2013-02-22 13:20:00,
2013-02-22 05:25:00,41.1,38.7,30.03,East,85,3.0,3.0,91,0.00,,,0.02,Wunderground v.1.15,2013-02-22 13:25:00,
2013-02-22 05:30:00,40.9,38.8,30.03,East,97,3.0,3.0,92,0.00,,,0.02,Wunderground v.1.15,2013-02-22 13:30:00,
2013-02-22 05:35:00,40.9,38.8,30.02,East,100,3.0,3.0,92,0.00,,,0.02,Wunderground v.1.15,2013-02-22 13:35:00,
2013-02-22 05:40:00,40.9,38.8,30.02,ESE,103,4.0,4.0,92,0.00,,,0.02,Wunderground v.1.15,2013-02-22 13:40:00,
2013-02-22 05:50:00,41.0,38.9,30.02,ENE,76,2.0,2.0,92,0.00,,,0.02,Wunderground v.1.15,2013-02-22 13:50:00,
2013-02-22 05:55:00,41.1,39.0,30.01,ENE,78,1.0,2.0,92,0.00,,,0.03,Wunderground v.1.15,2013-02-22 13:55:00,
2013-02-22 06:00:00,41.2,39.1,30.01,East,101,1.0,1.0,92,0.00,,,0.03,Wunderground v.1.15,2013-02-22 14:00:00,
2013-02-22 06:05:00,41.3,39.2,30.00,ESE,114,2.0,4.0,92,0.00,,,0.03,Wunderground v.1.15,2013-02-22 14:05:00,
2013-02-22 06:10:00,41.3,39.2,30.00,East,92,1.0,3.0,92,0.00,,,0.03,Wunderground v.1.15,2013-02-22 14:10:00,
2013-02-22 06:20:00,41.4,39.3,29.98,ESE,108,3.0,4.0,92,0.00,,,0.03,Wunderground v.1.15,2013-02-22 14:20:00,
2013-02-22 06:25:00,41.4,39.3,29.98,East,101,4.0,6.0,92,0.00,,,0.03,Wunderground v.1.15,2013-02-22 14:25:00,
2013-02-22 06:30:00,41.6,39.4,29.98,SE,137,4.0,4.0,92,0.00,,,0.03,Wunderground v.1.15,2013-02-22 14:30:00,
2013-02-22 06:35:00,41.8,39.4,29.97,ESE,108,4.0,5.0,91,0.00,,,0.03,Wunderground v.1.15,2013-02-22 14:35:00,
2013-02-22 06:40:00,41.7,39.3,29.97,ESE,123,4.0,5.0,91,0.00,,,0.03,Wunderground v.1.15,2013-02-22 14:40:00,
2013-02-22 06:45:00,41.8,39.4,29.97,ESE,105,4.0,5.0,91,0.00,,,0.03,Wunderground v.1.15,2013-02-22 14:45:00,
2013-02-22 06:50:00,41.8,39.4,29.97,ESE,123,3.0,3.0,91,0.00,,,0.03,Wunderground v.1.15,2013-02-22 14:50:00,
2013-02-22 06:55:00,41.8,39.4,29.97,East,90,2.0,3.0,91,0.00,,,0.04,Wunderground v.1.15,2013-02-22 14:55:00,
2013-02-22 07:00:00,41.7,39.5,29.98,East,92,1.0,1.0,92,0.00,,,0.04,Wunderground v.1.15,2013-02-22 15:00:00,
2013-02-22 07:05:00,41.7,39.5,29.98,East,84,1.0,1.0,92,0.05,,,0.05,Wunderground v.1.15,2013-02-22 15:05:00,
2013-02-22 07:10:00,41.7,39.3,29.98,East,101,1.0,2.0,91,0.05,,,0.05,Wunderground v.1.15,2013-02-22 15:10:00,
2013-02-22 07:20:00,41.6,39.4,29.97,ESE,119,2.0,3.0,92,0.04,,,0.06,Wunderground v.1.15,2013-02-22 15:20:00,
2013-02-22 07:25:00,41.5,39.3,29.97,East,91,2.0,5.0,92,0.04,,,0.06,Wunderground v.1.15,2013-02-22 15:25:00,
2013-02-22 07:30:00,41.5,39.6,29.97,East,93,3.0,5.0,93,0.06,,,0.07,Wunderground v.1.15,2013-02-22 15:30:00,
2013-02-22 07:35:00,41.4,39.5,29.96,East,90,3.0,5.0,93,0.11,,,0.08,Wunderground v.1.15,2013-02-22 15:35:00,
2013-02-22 07:40:00,41.3,39.4,29.96,East,95,3.0,3.0,93,0.14,,,0.09,Wunderground v.1.15,2013-02-22 15:40:00,
2013-02-22 07:45:00,41.3,39.4,29.96,East,98,3.0,3.0,93,0.12,,,0.10,Wunderground v.1.15,2013-02-22 15:45:00,
2013-02-22 07:50:00,41.2,39.6,29.97,ESE,120,3.0,3.0,94,0.10,,,0.11,Wunderground v.1.15,2013-02-22 15:50:00,
2013-02-22 07:55:00,41.2,39.6,29.97,East,91,2.0,3.0,94,0.11,,,0.12,Wunderground v.1.15,2013-02-22 15:55:00,
2013-02-22 08:05:00,41.2,39.6,29.96,East,91,2.0,2.0,94,0.08,,,0.13,Wunderground v.1.15,2013-02-22 16:05:00,
2013-02-22 08:10:00,41.2,39.6,29.97,East,101,2.0,2.0,94,0.08,,,0.13,Wunderground v.1.15,2013-02-22 16:10:00,
2013-02-22 08:15:00,41.2,39.6,29.98,SE,146,3.0,4.0,94,0.06,,,0.14,Wunderground v.1.15,2013-02-22 16:15:00,
2013-02-22 08:20:00,41.3,39.7,29.98,South,175,4.0,4.0,94,0.10,,,0.15,Wunderground v.1.15,2013-02-22 16:20:00,
2013-02-22 08:25:00,41.2,39.6,29.97,SE,140,5.0,9.0,94,0.08,,,0.15,Wunderground v.1.15,2013-02-22 16:25:00,
2013-02-22 08:30:00,41.3,39.7,29.96,SE,132,5.0,5.0,94,0.06,,,0.16,Wunderground v.1.15,2013-02-22 16:30:00,
2013-02-22 08:35:00,41.3,39.7,29.96,SE,129,5.0,5.0,94,0.06,,,0.16,Wunderground v.1.15,2013-02-22 16:35:00,
2013-02-22 08:40:00,41.2,39.6,29.95,ESE,114,4.0,4.0,94,0.08,,,0.17,Wunderground v.1.15,2013-02-22 16:40:00,
2013-02-22 08:45:00,41.2,39.6,29.94,ESE,123,2.0,4.0,94,0.11,,,0.18,Wunderground v.1.15,2013-02-22 16:45:00,
2013-02-22 08:50:00,41.1,39.5,29.94,ESE,109,2.0,2.0,94,0.13,,,0.19,Wunderground v.1.15,2013-02-22 16:50:00,
2013-02-22 08:55:00,41.1,39.8,29.94,ESE,106,3.0,3.0,95,0.25,,,0.22,Wunderground v.1.15,2013-02-22 16:55:00,
2013-02-22 09:05:00,41.1,39.8,29.93,ENE,76,5.0,5.0,95,0.23,,,0.25,Wunderground v.1.15,2013-02-22 17:05:00,
2013-02-22 09:10:00,41.1,39.8,29.92,ESE,103,4.0,4.0,95,0.23,,,0.28,Wunderground v.1.15,2013-02-22 17:10:00,
2013-02-22 09:15:00,41.1,39.8,29.92,ESE,108,4.0,4.0,95,0.26,,,0.30,Wunderground v.1.15,2013-02-22 17:15:00,
2013-02-22 09:20:00,41.1,39.8,29.92,East,88,4.0,5.0,95,0.22,,,0.32,Wunderground v.1.15,2013-02-22 17:20:00,
2013-02-22 09:25:00,41.2,39.9,29.93,ENE,76,3.0,5.0,95,0.17,,,0.33,Wunderground v.1.15,2013-02-22 17:25:00,
2013-02-22 09:30:00,41.3,40.0,29.94,ENE,75,4.0,5.0,95,0.19,,,0.35,Wunderground v.1.15,2013-02-22 17:30:00,
2013-02-22 09:35:00,41.4,40.1,29.94,ENE,74,4.0,5.0,95,0.14,,,0.36,Wunderground v.1.15,2013-02-22 17:35:00,
2013-02-22 09:40:00,41.5,40.4,29.94,East,81,3.0,3.0,96,0.12,,,0.37,Wunderground v.1.15,2013-02-22 17:40:00,
2013-02-22 09:45:00,41.4,40.3,29.93,East,95,2.0,3.0,96,0.14,,,0.38,Wunderground v.1.15,2013-02-22 17:45:00,
2013-02-22 09:50:00,41.5,40.2,29.93,East,86,2.0,2.0,95,0.20,,,0.40,Wunderground v.1.15,2013-02-22 17:50:00,
2013-02-22 09:55:00,41.5,40.4,29.93,East,82,2.0,3.0,96,0.20,,,0.42,Wunderground v.1.15,2013-02-22 17:55:00,
2013-02-22 10:00:00,41.7,40.6,29.92,East,84,3.0,5.0,96,0.23,,,0.44,Wunderground v.1.15,2013-02-22 18:00:00,
2013-02-22 10:05:00,41.7,40.6,29.92,ESE,111,5.0,5.0,96,0.19,,,0.45,Wunderground v.1.15,2013-02-22 18:05:00,
2013-02-22 10:10:00,41.9,40.8,29.92,East,80,4.0,4.0,96,0.17,,,0.47,Wunderground v.1.15,2013-02-22 18:10:00,
2013-02-22 10:15:00,42.0,40.9,29.92,SSE,155,3.0,5.0,96,0.18,,,0.48,Wunderground v.1.15,2013-02-22 18:15:00,
2013-02-22 10:20:00,43.5,41.6,29.91,SSE,147,6.0,6.0,93,0.27,,,0.50,Wunderground v.1.15,2013-02-22 18:20:00,
2013-02-22 10:25:00,43.8,41.1,29.91,South,171,9.0,17.0,90,0.22,,,0.53,Wunderground v.1.15,2013-02-22 18:25:00,
2013-02-22 10:30:00,44.5,40.6,29.90,SSE,167,11.0,26.0,86,0.37,,,0.55,Wunderground v.1.15,2013-02-22 18:30:00,
2013-02-22 10:35:00,44.9,40.4,29.90,South,173,15.0,26.0,84,0.15,,,0.56,Wunderground v.1.15,2013-02-22 18:35:00,
2013-02-22 10:40:00,44.7,40.5,29.90,SSE,165,13.0,13.0,85,0.15,,,0.57,Wunderground v.1.15,2013-02-22 18:40:00,
2013-02-22 10:45:00,44.6,40.4,29.91,SSE,161,9.0,13.0,85,0.34,,,0.59,Wunderground v.1.15,2013-02-22 18:45:00,
2013-02-22 10:50:00,44.5,40.6,29.91,South,182,8.0,13.0,86,0.63,,,0.62,Wunderground v.1.15,2013-02-22 18:50:00,
2013-02-22 10:55:00,44.4,40.5,29.90,South,169,9.0,15.0,86,0.40,,,0.66,Wunderground v.1.15,2013-02-22 18:55:00,
2013-02-22 11:00:00,44.5,40.3,29.90,South,179,13.0,19.0,85,0.25,,,0.68,Wunderground v.1.15,2013-02-22 19:00:00,
2013-02-22 11:05:00,44.7,40.2,29.89,SE,136,15.0,19.0,84,0.16,,,0.70,Wunderground v.1.15,2013-02-22 19:05:00,
2013-02-22 11:10:00,44.8,40.3,29.89,SE,136,16.0,16.0,84,0.19,,,0.72,Wunderground v.1.15,2013-02-22 19:10:00,
2013-02-22 11:15:00,44.8,40.3,29.89,South,179,16.0,16.0,84,0.15,,,0.73,Wunderground v.1.15,2013-02-22 19:15:00,
2013-02-22 11:20:00,45.2,40.3,29.89,SSE,153,16.0,16.0,83,0.18,,,0.75,Wunderground v.1.15,2013-02-22 19:20:00,
2013-02-22 11:25:00,45.1,39.9,29.88,SSE,167,17.0,17.0,82,0.17,,,0.76,Wunderground v.1.15,2013-02-22 19:25:00,
2013-02-22 11:30:00,44.7,40.2,29.88,SSE,166,16.0,18.0,84,0.20,,,0.78,Wunderground v.1.15,2013-02-22 19:30:00,
2013-02-22 11:35:00,44.6,40.1,29.88,South,176,16.0,18.0,84,0.20,,,0.80,Wunderground v.1.15,2013-02-22 19:35:00,
2013-02-22 11:40:00,44.9,40.4,29.87,SSE,165,17.0,20.0,84,0.19,,,0.81,Wunderground v.1.15,2013-02-22 19:40:00,
2013-02-22 11:45:00,45.3,40.4,29.86,South,188,19.0,23.0,83,0.13,,,0.82,Wunderground v.1.15,2013-02-22 19:45:00,
2013-02-22 11:50:00,45.4,40.5,29.86,South,175,19.0,19.0,83,0.13,,,0.83,Wunderground v.1.15,2013-02-22 19:50:00,
2013-02-22 11:55:00,45.6,40.7,29.86,South,169,18.0,19.0,83,0.21,,,0.86,Wunderground v.1.15,2013-02-22 19:55:00,
2013-02-22 12:05:00,46.2,41.3,29.85,South,181,20.0,22.0,83,0.24,,,0.89,Wunderground v.1.15,2013-02-22 20:05:00,
2013-02-22 12:15:00,46.5,41.3,29.85,SSW,204,21.0,21.0,82,0.25,,,0.93,Wunderground v.1.15,2013-02-22 20:15:00,
2013-02-22 12:20:00,46.6,41.4,29.85,South,177,21.0,21.0,82,0.17,,,0.94,Wunderground v.1.15,2013-02-22 20:20:00,
2013-02-22 12:25:00,46.6,41.4,29.85,South,181,20.0,27.0,82,0.21,,,0.96,Wunderground v.1.15,2013-02-22 20:25:00,
2013-02-22 12:30:00,46.6,41.7,29.85,South,171,20.0,21.0,83,0.23,,,0.98,Wunderground v.1.15,2013-02-22 20:30:00,
2013-02-22 12:35:00,46.4,41.8,29.84,South,178,18.0,21.0,84,0.43,,,1.01,Wunderground v.1.15,2013-02-22 20:35:00,
2013-02-22 12:40:00,46.6,41.7,29.84,SSE,159,16.0,16.0,83,0.23,,,1.04,Wunderground v.1.15,2013-02-22 20:40:00,
2013-02-22 12:45:00,46.8,41.9,29.85,SSE,167,17.0,17.0,83,0.23,,,1.05,Wunderground v.1.15,2013-02-22 20:45:00,
2013-02-22 12:55:00,46.6,42.0,29.86,South,187,12.0,15.0,84,0.24,,,1.09,Wunderground v.1.15,2013-02-22 20:55:00,
2013-02-22 13:00:00,46.8,42.2,29.85,South,183,10.0,10.0,84,0.32,,,1.11,Wunderground v.1.15,2013-02-22 21:00:00,
2013-02-22 13:05:00,46.5,42.2,29.85,SE,136,7.0,13.0,85,0.30,,,1.13,Wunderground v.1.15,2013-02-22 21:05:00,
2013-02-22 13:10:00,46.5,42.5,29.85,SSW,196,5.0,5.0,86,0.28,,,1.15,Wunderground v.1.15,2013-02-22 21:10:00,
2013-02-22 13:15:00,46.6,42.6,29.84,East,101,5.0,9.0,86,0.11,,,1.16,Wunderground v.1.15,2013-02-22 21:15:00,
2013-02-22 13:20:00,46.8,42.5,29.84,SE,138,6.0,6.0,85,0.11,,,1.16,Wunderground v.1.15,2013-02-22 21:20:00,
2013-02-22 13:25:00,46.7,42.7,29.84,South,190,3.0,6.0,86,0.08,,,1.17,Wunderground v.1.15,2013-02-22 21:25:00,
2013-02-22 13:30:00,47.0,43.0,29.84,SSE,149,3.0,3.0,86,0.08,,,1.17,Wunderground v.1.15,2013-02-22 21:30:00,
2013-02-22 13:35:00,47.3,43.0,29.84,SSE,167,5.0,5.0,85,0.05,,,1.17,Wunderground v.1.15,2013-02-22 21:35:00,
2013-02-22 13:40:00,47.4,43.4,29.85,SSW,200,6.0,6.0,86,0.04,,,1.18,Wunderground v.1.15,2013-02-22 21:40:00,
2013-02-22 13:45:00,47.3,43.6,29.85,West,281,4.0,7.0,87,0.33,,,1.20,Wunderground v.1.15,2013-02-22 21:45:00,
2013-02-22 13:50:00,46.3,42.9,29.87,WNW,288,8.0,22.0,88,0.49,,,1.22,Wunderground v.1.15,2013-02-22 21:50:00,
2013-02-22 13:55:00,45.0,42.2,29.87,West,280,16.0,22.0,90,0.12,,,1.23,Wunderground v.1.15,2013-02-22 21:55:00,
2013-02-22 14:00:00,44.7,42.2,29.86,WNW,288,16.0,16.0,91,0.07,,,1.24,Wunderground v.1.15,2013-02-22 22:00:00,
2013-02-22 14:05:00,44.9,42.4,29.85,West,276,14.0,16.0,91,0.07,,,1.24,Wunderground v.1.15,2013-02-22 22:05:00,
2013-02-22 14:10:00,45.1,42.3,29.86,WNW,284,14.0,17.0,90,0.07,,,1.25,Wunderground v.1.15,2013-02-22 22:10:00,
2013-02-22 14:15:00,45.3,42.5,29.85,West,267,12.0,17.0,90,0.07,,,1.25,Wunderground v.1.15,2013-02-22 22:15:00,
2013-02-22 14:20:00,45.4,42.3,29.85,SW,230,11.0,18.0,89,0.05,,,1.25,Wunderground v.1.15,2013-02-22 22:20:00,
2013-02-22 14:25:00,45.6,42.5,29.85,WSW,254,13.0,18.0,89,0.00,,,1.25,Wunderground v.1.15,2013-02-22 22:25:00,
2013-02-22 14:30:00,45.8,42.4,29.85,WSW,256,14.0,19.0,88,0.00,,,1.25,Wunderground v.1.15,2013-02-22 22:30:00,
2013-02-22 14:35:00,46.1,42.4,29.86,West,267,14.0,19.0,87,0.00,,,1.25,Wunderground v.1.15,2013-02-22 22:35:00,
2013-02-22 14:40:00,46.2,42.2,29.85,WSW,258,15.0,16.0,86,0.00,,,1.25,Wunderground v.1.15,2013-02-22 22:40:00,
2013-02-22 14:45:00,46.3,42.3,29.85,WNW,285,15.0,16.0,86,0.00,,,1.25,Wunderground v.1.15,2013-02-22 22:45:00,
2013-02-22 14:50:00,46.3,42.0,29.85,West,265,16.0,16.0,85,0.00,,,1.25,Wunderground v.1.15,2013-02-22 22:50:00,
2013-02-22 14:55:00,46.4,42.1,29.85,West,269,16.0,16.0,85,0.00,,,1.25,Wunderground v.1.15,2013-02-22 22:55:00,
2013-02-22 15:00:00,46.3,42.0,29.85,West,259,15.0,21.0,85,0.00,,,1.25,Wunderground v.1.15,2013-02-22 23:00:00,
2013-02-22 15:05:00,46.5,42.2,29.85,West,262,15.0,21.0,85,0.00,,,1.25,Wunderground v.1.15,2013-02-22 23:05:00,
2013-02-22 15:10:00,46.4,42.1,29.86,West,273,14.0,14.0,85,0.00,,,1.25,Wunderground v.1.15,2013-02-22 23:10:00,
2013-02-22 15:15:00,46.5,41.6,29.85,WSW,242,13.0,14.0,83,0.00,,,1.25,Wunderground v.1.15,2013-02-22 23:15:00,
2013-02-22 15:20:00,46.6,41.7,29.85,WSW,245,14.0,14.0,83,0.00,,,1.25,Wunderground v.1.15,2013-02-22 23:20:00,
2013-02-22 15:25:00,46.7,41.5,29.85,WSW,252,14.0,16.0,82,0.00,,,1.25,Wunderground v.1.15,2013-02-22 23:25:00,
2013-02-22 15:30:00,46.6,41.4,29.86,WSW,239,16.0,18.0,82,0.00,,,1.25,Wunderground v.1.15,2013-02-22 23:30:00,
2013-02-22 15:35:00,46.5,41.3,29.86,West,263,17.0,18.0,82,0.00,,,1.25,Wunderground v.1.15,2013-02-22 23:35:00,
2013-02-22 15:40:00,46.5,41.3,29.86,West,259,18.0,20.0,82,0.00,,,1.25,Wunderground v.1.15,2013-02-22 23:40:00,
2013-02-22 15:45:00,46.5,41.6,29.86,WSW,252,19.0,20.0,83,0.00,,,1.25,Wunderground v.1.15,2013-02-22 23:45:00,
2013-02-22 15:50:00,46.3,41.7,29.87,WSW,251,15.0,15.0,84,0.00,,,1.25,Wunderground v.1.15,2013-02-22 23:50:00,
2013-02-22 15:55:00,46.3,41.7,29.87,NW,311,14.0,15.0,84,0.00,,,1.25,Wunderground v.1.15,2013-02-22 23:55:00,
2013-02-22 16:00:00,46.3,41.4,29.87,West,263,15.0,17.0,83,0.00,,,1.25,Wunderground v.1.15,2013-02-23 00:00:00,
2013-02-22 16:05:00,46.1,41.2,29.87,WNW,284,14.0,19.0,83,0.00,,,1.25,Wunderground v.1.15,2013-02-23 00:05:00,
2013-02-22 16:10:00,45.8,40.9,29.87,WNW,285,14.0,23.0,83,0.00,,,1.25,Wunderground v.1.15,2013-02-23 00:10:00,
2013-02-22 16:15:00,45.5,40.6,29.88,West,275,16.0,23.0,83,0.00,,,1.25,Wunderground v.1.15,2013-02-23 00:15:00,
2013-02-22 16:25:00,45.0,40.5,29.89,WNW,284,15.0,20.0,84,0.00,,,1.25,Wunderground v.1.15,2013-02-23 00:25:00,
2013-02-22 16:30:00,44.0,38.9,29.89,WNW,282,14.0,15.0,82,0.00,,,1.25,Wunderground v.1.15,2013-02-23 00:30:00,
2013-02-22 16:35:00,43.4,38.3,29.88,West,280,16.0,16.0,82,0.00,,,1.25,Wunderground v.1.15,2013-02-23 00:35:00,
2013-02-22 16:40:00,43.2,38.4,29.89,West,277,16.0,16.0,83,0.00,,,1.25,Wunderground v.1.15,2013-02-23 00:40:00,
2013-02-22 16:50:00,43.1,38.6,29.90,West,269,13.0,13.0,84,0.00,,,1.25,Wunderground v.1.15,2013-02-23 00:50:00,
2013-02-22 16:55:00,43.0,38.5,29.89,WNW,298,11.0,13.0,84,0.00,,,1.25,Wunderground v.1.15,2013-02-23 00:55:00,
2013-02-22 17:00:00,43.1,38.6,29.90,WNW,286,10.0,10.0,84,0.00,,,1.25,Wunderground v.1.15,2013-02-23 01:00:00,
2013-02-22 17:05:00,43.1,38.6,29.90,WNW,282,11.0,11.0,84,0.00,,,1.25,Wunderground v.1.15,2013-02-23 01:05:00,
2013-02-22 17:10:00,43.2,38.7,29.90,West,270,11.0,11.0,84,0.00,,,1.25,Wunderground v.1.15,2013-02-23 01:10:00,
2013-02-22 17:15:00,43.1,38.6,29.90,WSW,255,10.0,11.0,84,0.00,,,1.25,Wunderground v.1.15,2013-02-23 01:15:00,
2013-02-22 17:20:00,43.1,38.6,29.91,WNW,284,7.0,7.0,84,0.00,,,1.25,Wunderground v.1.15,2013-02-23 01:20:00,
2013-02-22 17:25:00,43.2,38.4,29.90,West,274,7.0,7.0,83,0.00,,,1.25,Wunderground v.1.15,2013-02-23 01:25:00,
2013-02-22 17:30:00,43.1,38.3,29.90,West,271,7.0,7.0,83,0.00,,,1.25,Wunderground v.1.15,2013-02-23 01:30:00,
2013-02-22 17:35:00,43.2,38.4,29.91,WNW,293,9.0,11.0,83,0.00,,,1.25,Wunderground v.1.15,2013-02-23 01:35:00,
2013-02-22 17:40:00,41.8,37.0,29.91,West,279,14.0,25.0,83,0.00,,,1.25,Wunderground v.1.15,2013-02-23 01:40:00,
2013-02-22 17:45:00,40.8,36.9,29.92,West,277,18.0,25.0,86,0.00,,,1.26,Wunderground v.1.15,2013-02-23 01:45:00,
2013-02-22 17:50:00,40.5,36.6,29.92,WNW,295,16.0,16.0,86,0.00,,,1.26,Wunderground v.1.15,2013-02-23 01:50:00,
2013-02-22 17:55:00,40.6,36.7,29.92,WSW,258,13.0,16.0,86,0.00,,,1.26,Wunderground v.1.15,2013-02-23 01:55:00,
2013-02-22 18:00:00,40.4,36.8,29.92,West,280,11.0,14.0,87,0.00,,,1.26,Wunderground v.1.15,2013-02-23 02:00:00,
2013-02-22 18:05:00,40.4,36.8,29.92,West,275,11.0,14.0,87,0.00,,,1.26,Wunderground v.1.15,2013-02-23 02:05:00,
2013-02-22 18:10:00,40.4,36.5,29.92,NW,313,12.0,12.0,86,0.00,,,1.26,Wunderground v.1.15,2013-02-23 02:10:00,
2013-02-22 18:20:00,40.4,36.5,29.92,WNW,286,10.0,10.0,86,0.00,,,1.26,Wunderground v.1.15,2013-02-23 02:20:00,
2013-02-22 18:25:00,40.5,36.6,29.92,WNW,300,9.0,10.0,86,0.00,,,1.26,Wunderground v.1.15,2013-02-23 02:25:00,
2013-02-22 18:30:00,40.6,36.4,29.93,West,274,7.0,7.0,85,0.00,,,1.26,Wunderground v.1.15,2013-02-23 02:30:00,
2013-02-22 18:35:00,40.7,36.2,29.92,NNW,331,6.0,7.0,84,0.00,,,1.26,Wunderground v.1.15,2013-02-23 02:35:00,
2013-02-22 18:40:00,40.9,36.1,29.93,West,272,7.0,8.0,83,0.00,,,1.26,Wunderground v.1.15,2013-02-23 02:40:00,
2013-02-22 18:45:00,41.2,36.1,29.93,West,263,8.0,9.0,82,0.00,,,1.26,Wunderground v.1.15,2013-02-23 02:45:00,
2013-02-22 18:55:00,41.5,36.1,29.93,West,269,9.0,10.0,81,0.00,,,1.26,Wunderground v.1.15,2013-02-23 02:55:00,
2013-02-22 19:00:00,41.5,36.1,29.93,WSW,239,8.0,13.0,81,0.00,,,1.26,Wunderground v.1.15,2013-02-23 03:00:00,
2013-02-22 19:05:00,41.4,36.0,29.93,WSW,251,9.0,13.0,81,0.00,,,1.26,Wunderground v.1.15,2013-02-23 03:05:00,
2013-02-22 19:10:00,41.4,35.7,29.93,WSW,254,10.0,15.0,80,0.00,,,1.26,Wunderground v.1.15,2013-02-23 03:10:00,
2013-02-22 19:15:00,41.5,35.5,29.93,West,267,11.0,15.0,79,0.00,,,1.26,Wunderground v.1.15,2013-02-23 03:15:00,
2013-02-22 19:20:00,41.4,35.4,29.93,West,263,12.0,12.0,79,0.00,,,1.26,Wunderground v.1.15,2013-02-23 03:20:00,
2013-02-22 19:25:00,41.3,35.6,29.94,West,281,11.0,12.0,80,0.00,,,1.26,Wunderground v.1.15,2013-02-23 03:25:00,
2013-02-22 19:30:00,41.4,35.4,29.93,West,262,10.0,11.0,79,0.00,,,1.26,Wunderground v.1.15,2013-02-23 03:30:00,
2013-02-22 19:35:00,41.6,35.2,29.94,WSW,250,10.0,11.0,78,0.00,,,1.26,Wunderground v.1.15,2013-02-23 03:35:00,
2013-02-22 19:40:00,41.7,35.0,29.93,West,263,10.0,10.0,77,0.00,,,1.26,Wunderground v.1.15,2013-02-23 03:40:00,
2013-02-22 19:45:00,41.6,35.2,29.93,West,268,8.0,10.0,78,0.00,,,1.26,Wunderground v.1.15,2013-02-23 03:45:00,
2013-02-22 19:55:00,41.6,35.6,29.96,West,281,6.0,9.0,79,0.00,,,1.27,Wunderground v.1.15,2013-02-23 03:55:00,
2013-02-22 20:05:00,37.3,34.1,29.98,WNW,284,16.0,20.0,88,0.10,,,1.29,Wunderground v.1.15,2013-02-23 04:05:00,
2013-02-22 20:10:00,36.6,33.7,29.97,WNW,300,15.0,15.0,89,0.05,,,1.29,Wunderground v.1.15,2013-02-23 04:10:00,
2013-02-22 20:15:00,36.6,33.7,29.97,West,269,11.0,15.0,89,0.04,,,1.29,Wunderground v.1.15,2013-02-23 04:15:00,
2013-02-22 20:20:00,37.2,34.0,29.97,West,263,8.0,9.0,88,0.00,,,1.29,Wunderground v.1.15,2013-02-23 04:20:00,
2013-02-22 20:25:00,37.3,34.1,29.97,WSW,258,8.0,9.0,88,0.00,,,1.29,Wunderground v.1.15,2013-02-23 04:25:00,
2013-02-22 20:30:00,37.4,34.2,29.97,WSW,257,6.0,6.0,88,0.00,,,1.29,Wunderground v.1.15,2013-02-23 04:30:00,
2013-02-22 20:35:00,37.8,34.6,29.96,West,275,5.0,6.0,88,0.00,,,1.29,Wunderground v.1.15,2013-02-23 04:35:00,
2013-02-22 20:40:00,38.2,34.7,29.96,West,262,4.0,4.0,87,0.00,,,1.29,Wunderground v.1.15,2013-02-23 04:40:00,
2013-02-22 20:45:00,38.5,34.7,29.97,WNW,296,4.0,4.0,86,0.00,,,1.29,Wunderground v.1.15,2013-02-23 04:45:00,
2013-02-22 20:50:00,38.7,34.9,29.98,WSW,253,3.0,6.0,86,0.00,,,1.29,Wunderground v.1.15,2013-02-23 04:50:00,
2013-02-22 20:55:00,39.0,34.9,29.98,West,267,4.0,9.0,85,0.35,,,1.31,Wunderground v.1.15,2013-02-23 04:55:00,
2013-02-22 21:00:00,39.4,35.3,29.99,WSW,254,8.0,9.0,85,0.10,,,1.31,Wunderground v.1.15,2013-02-23 05:00:00,
2013-02-22 21:05:00,39.0,35.2,29.99,West,262,11.0,11.0,86,0.05,,,1.31,Wunderground v.1.15,2013-02-23 05:05:00,
2013-02-22 21:10:00,38.9,35.4,29.99,West,277,13.0,15.0,87,0.04,,,1.32,Wunderground v.1.15,2013-02-23 05:10:00,
2013-02-22 21:15:00,38.8,35.3,29.99,West,268,13.0,15.0,87,0.04,,,1.32,Wunderground v.1.15,2013-02-23 05:15:00,
2013-02-22 21:20:00,38.9,35.4,29.99,WSW,249,14.0,14.0,87,0.04,,,1.32,Wunderground v.1.15,2013-02-23 05:20:00,
2013-02-22 21:25:00,39.0,34.9,29.98,West,259,14.0,15.0,85,0.00,,,1.32,Wunderground v.1.15,2013-02-23 05:25:00,
2013-02-22 21:30:00,39.1,34.7,29.98,West,266,15.0,15.0,84,0.00,,,1.32,Wunderground v.1.15,2013-02-23 05:30:00,
2013-02-22 21:40:00,39.0,34.3,29.97,WNW,285,12.0,12.0,83,0.00,,,1.32,Wunderground v.1.15,2013-02-23 05:40:00,
2013-02-22 21:45:00,39.0,34.6,29.97,West,266,12.0,12.0,84,0.00,,,1.32,Wunderground v.1.15,2013-02-23 05:45:00,
2013-02-22 21:50:00,39.2,34.8,29.98,West,265,12.0,14.0,84,0.00,,,1.32,Wunderground v.1.15,2013-02-23 05:50:00,